KC5NAM Weather Reports


time (UTC)temp
F
wind
direction
speed
knots
gust
knots
rain 1hr
in
rain 24hr
in
rain mn
in
humidity
%
barometer
mb
20260506144552 78 0 0.9 5.2 0.00 0.00 0.00 88 1013.5
20260506144036 78 110 0.0 2.6 0.00 0.00 0.00 89 1013.4
20260506143536 78 0 0.0 2.6 0.00 0.00 0.00 89 1013.4
20260506143047 77 0 0.0 2.6 0.00 0.00 0.00 89 1013.3
20260506142536 77 0 0.0 2.6 0.00 0.00 0.00 90 1013.2
20260506142036 77 0 0.0 4.3 0.00 0.00 0.00 91 1013.2
20260506141541 77 120 0.0 4.3 0.00 0.00 0.00 91 1013.2
20260506141037 77 0 0.0 7.0 0.00 0.00 0.00 91 1013.0
20260506140537 76 86 0.0 7.0 0.00 0.00 0.00 91 1012.9
20260506140046 76 0 0.9 6.1 0.00 0.00 0.00 91 1012.6
20260506135536 76 115 0.9 7.8 0.00 0.00 0.00 92 1012.5
20260506135036 76 50 2.6 8.7 0.00 0.00 0.00 91 1012.4
20260506134609 76 107 0.9 8.7 0.00 0.00 0.00 92 1012.3
20260506134037 76 164 0.9 7.8 0.00 0.00 0.00 92 1012.4
20260506133601 76 180 0.9 7.8 0.00 0.00 0.00 92 1012.3
20260506133048 76 143 2.6 7.8 0.00 0.00 0.00 92 1012.4
20260506132536 76 146 0.9 6.1 0.00 0.00 0.00 92 1012.3
20260506132036 76 0 0.0 3.5 0.00 0.00 0.00 92 1012.4
20260506131606 76 0 0.0 5.2 0.00 0.00 0.00 92 1012.4
20260506131036 75 0 0.9 5.2 0.00 0.00 0.00 92 1012.4
20260506130536 75 0 0.0 5.2 0.00 0.00 0.00 93 1012.4
20260506130045 75 0 0.9 5.2 0.00 0.00 0.00 93 1012.4
20260506125535 75 117 0.9 5.2 0.00 0.00 0.00 93 1012.4
20260506125036 75 155 0.0 5.2 0.00 0.00 0.00 93 1012.4
20260506124541 75 91 0.9 5.2 0.00 0.00 0.00 92 1012.4
20260506124037 75 89 0.9 5.2 0.00 0.00 0.00 92 1012.4
20260506123537 75 0 0.9 5.2 0.00 0.00 0.00 92 1012.3
20260506123050 75 0 0.0 3.5 0.00 0.00 0.00 92 1012.3
20260506122536 75 103 0.9 3.5 0.00 0.00 0.00 92 1012.2
20260506122036 75 110 0.0 3.5 0.00 0.00 0.00 92 1012.1
20260506121549 75 0 0.0 3.5 0.00 0.00 0.00 92 1012.1
20260506121036 75 0 0.0 4.3 0.00 0.00 0.00 92 1012.1
20260506120536 75 79 0.0 4.3 0.00 0.00 0.00 92 1012.0
20260506120051 75 0 0.9 3.5 0.00 0.00 0.00 91 1012.2
20260506115537 75 81 0.9 3.5 0.00 0.00 0.00 91 1012.2
20260506115036 75 0 0.9 2.6 0.00 0.00 0.00 92 1012.2
20260506114548 75 104 0.0 3.5 0.00 0.00 0.00 91 1012.3
20260506114036 75 0 0.0 3.5 0.00 0.00 0.00 91 1012.2
20260506113537 75 0 0.0 3.5 0.00 0.00 0.00 91 1012.2
20260506113051 75 0 0.0 3.5 0.00 0.00 0.00 91 1012.1
20260506112537 75 86 0.0 3.5 0.00 0.00 0.00 91 1012.2
20260506112036 75 0 0.0 4.3 0.00 0.00 0.00 91 1012.1
20260506111538 75 109 0.0 4.3 0.00 0.00 0.00 91 1012.0
20260506111036 75 173 0.0 4.3 0.00 0.00 0.00 91 1012.0
20260506110537 75 0 0.0 4.3 0.00 0.00 0.00 91 1012.0
20260506110051 75 129 0.0 5.2 0.00 0.00 0.00 91 1012.0
20260506105536 75 0 0.9 5.2 0.00 0.00 0.00 90 1012.0
20260506105036 75 0 0.9 5.2 0.00 0.00 0.00 90 1012.0
20260506104544 76 153 1.7 5.2 0.00 0.00 0.00 90 1012.0
20260506104036 76 0 0.0 3.5 0.00 0.00 0.00 90 1011.8
20260506103536 76 133 0.0 4.3 0.00 0.00 0.00 90 1011.8
20260506103042 76 0 0.0 5.2 0.00 0.00 0.00 90 1011.8
20260506102535 76 0 0.9 5.2 0.00 0.00 0.00 90 1011.7
20260506102037 75 149 0.0 2.6 0.00 0.00 0.00 90 1011.6
20260506101541 76 0 0.0 2.6 0.00 0.00 0.00 89 1011.4
20260506101031 76 0 0.0 3.5 0.00 0.00 0.00 89 1011.6
20260506100534 76 0 0.0 5.2 0.00 0.00 0.00 88 1011.6
20260506100040 76 163 0.0 5.2 0.00 0.00 0.00 88 1011.7
20260506095534 76 169 0.9 5.2 0.00 0.00 0.00 88 1011.5
20260506095037 76 0 0.9 5.2 0.00 0.00 0.00 88 1011.4
20260506094545 76 136 2.6 6.1 0.00 0.00 0.00 88 1011.3
20260506094039 76 153 1.7 6.1 0.00 0.00 0.00 88 1011.4
20260506093534 76 157 0.9 6.1 0.00 0.00 0.00 87 1011.5
20260506093051 76 153 2.6 7.0 0.00 0.00 0.00 87 1011.5
20260506092535 76 142 0.9 7.0 0.00 0.00 0.00 87 1011.5
20260506092037 77 171 0.9 5.2 0.00 0.00 0.00 87 1011.7
20260506091542 77 0 0.9 6.1 0.00 0.00 0.00 87 1011.8
20260506091035 77 150 1.7 6.1 0.00 0.00 0.00 87 1011.9
20260506090534 77 147 3.5 6.1 0.00 0.00 0.00 87 1011.9
20260506090041 77 145 0.9 7.0 0.00 0.00 0.00 87 1012.0
20260506085534 77 0 1.7 7.0 0.00 0.00 0.00 87 1012.0
20260506085034 77 154 1.7 7.0 0.00 0.00 0.00 87 1012.1
20260506084538 77 157 3.5 7.0 0.00 0.00 0.00 87 1012.1
20260506084036 77 0 0.9 7.0 0.00 0.00 0.00 87 1012.0
20260506083534 77 164 3.5 7.0 0.00 0.00 0.00 87 1012.0
20260506083104 77 148 0.9 7.0 0.00 0.00 0.00 87 1011.9
20260506082536 77 154 1.7 7.8 0.00 0.00 0.00 87 1011.7
20260506082035 77 160 2.6 7.8 0.00 0.00 0.00 87 1011.8
20260506081548 77 154 2.6 7.8 0.00 0.00 0.00 87 1011.8
20260506081035 77 130 2.6 7.0 0.00 0.00 0.00 87 1011.6
20260506080535 77 167 2.6 7.8 0.00 0.00 0.00 87 1011.7
20260506073039 77 202 2.6 7.0 0.00 0.00 0.00 86 1012.0
20260506072534 77 0 3.5 8.7 0.00 0.00 0.00 86 1012.0
20260506072034 77 159 3.5 8.7 0.00 0.00 0.00 86 1011.9
20260506071551 77 169 3.5 7.8 0.00 0.00 0.00 86 1012.1
20260506071034 77 0 3.5 10.4 0.00 0.00 0.00 86 1012.2
20260506070536 77 125 2.6 10.4 0.00 0.00 0.00 86 1012.3
20260506062033 77 169 6.1 14.8 0.00 0.00 0.00 85 1012.3
20260506061542 77 171 4.3 11.3 0.00 0.00 0.00 85 1012.4
20260506061034 77 170 4.3 12.2 0.00 0.00 0.00 85 1012.4
20260506060535 77 117 3.5 13.9 0.00 0.00 0.00 85 1012.3
20260506051034 77 155 4.3 11.3 0.00 0.00 0.00 86 1012.6
20260506050534 77 98 3.5 8.7 0.00 0.00 0.00 86 1012.6
20260506045034 77 76 1.7 10.4 0.00 0.00 0.00 86 1012.5
20260506044539 77 150 2.6 10.4 0.00 0.00 0.00 86 1012.5
20260506044035 77 122 3.5 8.7 0.00 0.00 0.00 86 1012.6
20260506043534 77 130 2.6 8.7 0.00 0.00 0.00 86 1012.6
20260506043044 77 0 2.6 8.7 0.00 0.00 0.00 86 1012.4
20260506042535 77 119 2.6 9.6 0.00 0.00 0.00 86 1012.5
20260506042035 78 134 2.6 10.4 0.00 0.00 0.00 86 1012.4
20260506041542 78 0 1.7 10.4 0.00 0.00 0.00 86 1012.4
20260506041036 78 150 2.6 8.7 0.00 0.00 0.00 85 1012.2
20260506040536 78 0 1.7 10.4 0.00 0.00 0.00 85 1012.1
20260506040041 78 138 3.5 10.4 0.00 0.00 0.00 85 1012.2
20260506035536 78 70 2.6 7.8 0.00 0.00 0.00 85 1012.2
20260506035037 78 84 1.7 10.4 0.00 0.00 0.00 85 1012.2
20260506034551 78 0 3.5 10.4 0.00 0.00 0.00 85 1012.2
20260506034036 78 104 3.5 9.6 0.00 0.00 0.00 85 1012.1
20260506033536 78 145 4.3 9.6 0.00 0.00 0.00 84 1012.0
20260506033049 79 153 2.6 9.6 0.00 0.00 0.00 84 1012.0
20260506032536 79 110 2.6 9.6 0.00 0.00 0.00 84 1012.0
20260506032036 79 172 1.7 7.8 0.00 0.00 0.00 84 1011.9
20260506031542 79 0 2.6 6.1 0.00 0.00 0.00 84 1011.9
20260506031038 79 113 2.6 6.1 0.00 0.00 0.00 84 1011.8
20260506030538 79 0 1.7 7.0 0.00 0.00 0.00 84 1011.7
20260506030042 79 83 1.7 7.0 0.00 0.00 0.00 84 1011.7
20260506025537 79 127 1.7 7.8 0.00 0.00 0.00 83 1011.6
20260506025036 79 153 1.7 7.8 0.00 0.00 0.00 83 1011.5
20260506024550 79 109 2.6 7.8 0.00 0.00 0.00 83 1011.3
20260506024036 79 136 1.7 7.8 0.00 0.00 0.00 83 1011.3
20260506023536 79 159 3.5 7.8 0.00 0.00 0.00 83 1011.3
20260506023047 80 0 3.5 7.8 0.00 0.00 0.00 83 1011.1
20260506022536 80 68 1.7 7.8 0.00 0.00 0.00 83 1010.9
20260506022036 80 93 3.5 8.7 0.00 0.00 0.00 82 1010.7
20260506021547 80 111 3.5 8.7 0.00 0.00 0.00 82 1010.6
20260506021036 80 84 3.5 8.7 0.00 0.00 0.00 82 1010.5
20260506020536 80 123 2.6 8.7 0.00 0.00 0.00 81 1010.5
20260506020050 81 96 2.6 10.4 0.00 0.00 0.00 81 1010.3
20260506015538 81 96 3.5 10.4 0.00 0.00 0.00 80 1010.3
20260506015037 81 77 3.5 9.6 0.00 0.00 0.00 80 1010.4
20260506014541 81 100 3.5 9.6 0.00 0.00 0.00 80 1010.3
20260506014036 81 84 2.6 9.6 0.00 0.00 0.00 80 1010.4
20260506013536 82 92 2.6 9.6 0.00 0.00 0.00 79 1010.4
20260506013048 82 69 3.5 9.6 0.00 0.00 0.00 79 1010.2
20260506012536 82 108 5.2 9.6 0.00 0.00 0.00 79 1010.1
20260506012035 82 86 4.3 9.6 0.00 0.00 0.00 78 1010.1
20260506011610 82 115 2.6 6.1 0.00 0.00 0.00 78 1010.1
20260506011036 83 0 0.9 5.2 0.00 0.00 0.00 78 1009.9
20260506010537 83 0 1.7 9.6 0.00 0.00 0.00 77 1009.8
20260506010047 83 155 4.3 10.4 0.00 0.00 0.00 76 1009.7
20260506005536 84 78 5.2 10.4 0.00 0.00 0.00 76 1009.7
20260506005037 84 80 3.5 9.6 0.00 0.00 0.00 75 1009.6
20260506004602 84 66 2.6 11.3 0.00 0.00 0.00 74 1009.5
20260506004036 85 123 3.5 11.3 0.00 0.00 0.00 73 1009.4
20260506003536 85 183 3.5 10.4 0.00 0.00 0.00 73 1009.5
20260506003042 85 80 2.6 7.0 0.00 0.00 0.00 73 1009.5
20260506002536 85 85 1.7 7.0 0.00 0.00 0.00 73 1009.5
20260506002036 86 66 2.6 7.8 0.00 0.00 0.00 72 1009.5
20260506001549 86 57 3.5 9.6 0.00 0.00 0.00 71 1009.5
20260506001036 86 130 2.6 11.3 0.00 0.00 0.00 71 1009.5
20260506000537 86 74 3.5 11.3 0.00 0.00 0.00 70 1009.4
20260506000115 87 144 3.5 7.8 0.00 0.00 0.00 69 1009.4
20260505235536 87 103 0.9 7.8 0.00 0.00 0.00 69 1009.3
20260505235038 87 104 1.7 7.8 0.00 0.00 0.00 68 1009.2
20260505234553 87 76 3.5 11.3 0.00 0.00 0.00 68 1009.1
20260505234038 87 106 2.6 11.3 0.00 0.00 0.00 68 1009.1
20260505233535 88 78 2.6 11.3 0.00 0.00 0.00 67 1009.1
20260505233042 88 123 2.6 8.7 0.00 0.00 0.00 67 1009.1
20260505232536 88 81 3.5 9.6 0.00 0.00 0.00 67 1009.1
20260505232038 88 61 5.2 9.6 0.00 0.00 0.00 66 1009.1
20260505231542 89 67 4.3 8.7 0.00 0.00 0.00 65 1009.1
20260505231035 89 86 1.7 7.8 0.00 0.00 0.00 66 1009.1
20260505230536 89 161 0.9 8.7 0.00 0.00 0.00 65 1009.2
20260505230059 90 0 1.7 8.7 0.00 0.00 0.00 64 1009.2
20260505225537 90 69 3.5 11.3 0.00 0.00 0.00 64 1009.2
20260505225039 90 138 4.3 11.3 0.00 0.00 0.00 63 1009.2
20260505224542 91 94 4.3 9.6 0.00 0.00 0.00 63 1009.1
20260505224037 91 101 1.7 7.8 0.00 0.00 0.00 63 1009.2
20260505223536 91 92 3.5 8.7 0.00 0.00 0.00 62 1009.2
20260505223046 91 90 1.7 8.7 0.00 0.00 0.00 63 1009.2
20260505222537 91 109 2.6 9.6 0.00 0.00 0.00 63 1009.3
20260505222038 91 0 0.9 9.6 0.00 0.00 0.00 63 1009.2
20260505221557 91 161 2.6 7.8 0.00 0.00 0.00 63 1009.1
20260505221036 91 74 2.6 8.7 0.00 0.00 0.00 62 1009.2
20260505220534 91 0 2.6 8.7 0.00 0.00 0.00 62 1009.3
20260505220049 91 89 3.5 8.7 0.00 0.00 0.00 63 1009.4
20260505215535 90 128 3.5 7.0 0.00 0.00 0.00 63 1009.5
20260505215035 90 0 0.0 7.8 0.00 0.00 0.00 64 1009.5
20260505214537 90 0 1.7 7.8 0.00 0.00 0.00 63 1009.6
20260505214035 91 63 3.5 7.8 0.00 0.00 0.00 61 1009.7
20260505213535 92 115 2.6 7.8 0.00 0.00 0.00 61 1009.8
20260505213045 92 134 1.7 11.3 0.00 0.00 0.00 61 1009.8
20260505212535 92 0 3.5 11.3 0.00 0.00 0.00 59 1009.9
20260505212035 92 172 5.2 9.6 0.00 0.00 0.00 59 1010.0
20260505211543 92 66 1.7 7.8 0.00 0.00 0.00 59 1010.1
20260505211035 92 141 2.6 7.8 0.00 0.00 0.00 60 1010.0
20260505210535 92 135 2.6 7.8 0.00 0.00 0.00 59 1010.0
20260505210050 92 178 3.5 9.6 0.00 0.00 0.00 59 1010.0
20260505205535 92 151 2.6 9.6 0.00 0.00 0.00 59 1010.2
20260505205036 92 0 1.7 8.7 0.00 0.00 0.00 61 1010.3
20260505204553 91 109 1.7 8.7 0.00 0.00 0.00 61 1010.5
20260505204034 91 95 4.3 8.7 0.00 0.00 0.00 60 1010.6
20260505203537 91 161 0.9 7.8 0.00 0.00 0.00 61 1010.7
20260505203052 91 110 2.6 7.8 0.00 0.00 0.00 62 1010.7
20260505202534 91 146 3.5 7.8 0.00 0.00 0.00 63 1010.7
20260505202035 90 75 2.6 6.1 0.00 0.00 0.00 62 1010.9
20260505201551 91 163 2.6 6.1 0.00 0.00 0.00 62 1011.0
20260505201036 91 0 0.9 7.0 0.00 0.00 0.00 62 1010.9
20260505200535 91 136 0.0 7.0 0.00 0.00 0.00 61 1010.9
20260505200045 90 116 1.7 7.0 0.00 0.00 0.00 63 1011.0
20260505195538 90 148 0.9 7.0 0.00 0.00 0.00 62 1011.0
20260505195034 89 153 2.6 7.8 0.00 0.00 0.00 63 1011.1
20260505194604 89 185 3.5 7.8 0.00 0.00 0.00 65 1011.2
20260505194034 89 192 2.6 8.7 0.00 0.00 0.00 64 1011.3
20260505193535 89 150 3.5 10.4 0.00 0.00 0.00 65 1011.3
20260505193049 89 0 1.7 10.4 0.00 0.00 0.00 64 1011.4
20260505192534 89 162 4.3 10.4 0.00 0.00 0.00 64 1011.5
20260505192034 89 145 0.0 7.8 0.00 0.00 0.00 65 1011.5
20260505191556 88 205 2.6 9.6 0.00 0.00 0.00 65 1011.6
20260505191034 88 144 5.2 9.6 0.00 0.00 0.00 68 1011.6
20260505190536 87 139 0.9 8.7 0.00 0.00 0.00 67 1011.6
20260505190055 87 160 5.2 8.7 0.00 0.00 0.00 67 1011.6
20260505185537 86 126 3.5 7.8 0.00 0.00 0.00 70 1011.7
20260505185034 85 169 2.6 8.7 0.00 0.00 0.00 70 1011.8
20260505184544 85 0 2.6 9.6 0.00 0.00 0.00 70 1011.7
20260505184034 85 234 3.5 9.6 0.00 0.00 0.00 70 1011.8
20260505183534 85 156 1.7 7.0 0.00 0.00 0.00 71 1011.9
20260505183042 84 134 1.7 9.6 0.00 0.00 0.00 71 1012.0
20260505182534 84 189 2.6 9.6 0.00 0.00 0.00 73 1012.0
20260505182036 83 140 2.6 6.1 0.00 0.00 0.00 73 1012.1
20260505181540 83 198 0.9 8.7 0.00 0.00 0.00 73 1012.1
20260505181036 83 195 3.5 8.7 0.00 0.00 0.00 72 1012.1
20260505180534 83 163 2.6 8.7 0.00 0.00 0.00 73 1012.0
20260505180046 83 138 1.7 7.8 0.00 0.00 0.00 73 1011.9
20260505175534 83 148 3.5 8.7 0.00 0.00 0.00 73 1011.9
20260505175034 83 180 3.5 9.6 0.00 0.00 0.00 73 1012.0
20260505174544 83 129 4.3 9.6 0.00 0.00 0.00 72 1012.0
20260505174034 83 188 0.9 7.0 0.00 0.00 0.00 75 1012.2
20260505173534 83 84 4.3 7.0 0.00 0.00 0.00 74 1012.3
20260505173041 83 245 2.6 7.8 0.00 0.00 0.00 74 1012.3
20260505172535 83 147 2.6 7.8 0.00 0.00 0.00 75 1012.4
20260505172034 82 145 0.9 8.7 0.00 0.00 0.00 76 1012.3
20260505171608 82 186 3.5 8.7 0.00 0.00 0.00 76 1012.4
20260505171035 81 155 4.3 7.8 0.00 0.00 0.00 77 1012.5
20260505170535 80 156 3.5 10.4 0.00 0.00 0.00 77 1012.6
20260505170039 80 183 2.6 10.4 0.00 0.00 0.00 77 1012.7
20260505165534 80 159 4.3 10.4 0.00 0.00 0.00 78 1012.6
20260505165034 80 164 3.5 7.8 0.00 0.00 0.00 79 1012.7
20260505164543 79 139 4.3 7.8 0.00 0.00 0.00 80 1012.8
20260505164035 79 208 2.6 8.7 0.00 0.00 0.00 80 1012.8
20260505163535 78 138 3.5 8.7 0.00 0.00 0.00 82 1012.7
20260505163042 78 162 2.6 8.7 0.00 0.00 0.00 82 1012.7
20260505162534 78 178 3.5 8.7 0.00 0.00 0.00 82 1012.7
20260505162034 78 191 4.3 8.7 0.00 0.00 0.00 82 1012.7
20260505161540 77 0 3.5 8.7 0.00 0.00 0.00 82 1012.7
20260505161034 77 196 3.5 8.7 0.00 0.00 0.00 82 1012.7
20260505160538 77 169 3.5 7.8 0.00 0.00 0.00 83 1012.7
20260505153042 76 161 4.3 11.3 0.00 0.00 0.00 86 1012.8
20260505152533 75 145 2.6 9.6 0.00 0.00 0.00 87 1012.8
20260505152034 75 159 3.5 9.6 0.00 0.00 0.00 87 1012.9
20260505151541 75 157 2.6 7.8 0.00 0.00 0.00 87 1012.9
20260505151034 75 153 1.7 7.0 0.00 0.00 0.00 88 1012.9
20260505150534 74 169 1.7 8.7 0.00 0.00 0.00 88 1012.9